This demonstration page uses our WeatherBlox Daily Observations layout. Learn more.

Left ArrowRight Arrow

39.92423, -83.80882

Hourly Observations for January 19, 2015

Temp ( °F °C ) Dew Point ( °F °C ) Humidity (%) Winds ( mph kmh ) Pressure ( in mb ) Visibility ( mi km ) Precip ( " mm )
12:56 am 00:56 Clear 30 -1.1 28 -2.2 92 92 SW 8 13 30.04 1017 9 14 0.00 0.00
1:56 am 01:56 Partly Cloudy 29 -1.6 27 -2.7 92 92 SSW 7 11 30.04 1017 8 13 0.00 0.00
2:56 am 02:56 Mostly Cloudy with Mist and Fog 30 -1.1 28 -2.2 92 92 SSW 6 9 30.05 1018 5 8 0.00 0.00
3:56 am 03:56 Partly Cloudy 29 -1.6 28 -2.2 96 96 SSW 6 9 30.05 1018 7 11 0.00 0.00
4:56 am 04:56 Clear with Mist and Fog 28 -2.2 28 -2.2 100 100 S 5 7 30.05 1018 6 10 0.00 0.00
5:56 am 05:56 Clear with Mist and Fog 27 -2.7 27 -2.7 100 100 SSW 7 11 30.05 1018 5 8 0.00 0.00
6:56 am 06:56 Clear with Mist and Fog 27 -2.7 27 -2.7 100 100 Calm 30.05 1018 6 10 0.00 0.00
7:24 am 07:24 Clear with Mist and Fog 25 -4 25 -4 100 100 Calm 30.12 1020 2 3 0.00 0.00
7:37 am 07:37 Clear with Mist and Fog 25 -4 23 -5 93 93 S 3 6 30.12 1020 1 2 0.00 0.00
7:48 am 07:48 Clear with Mist and Fog 23 -5 23 -5 100 100 Calm 30.12 1020 2 3 0.00 0.00
7:56 am 07:56 Sunny with Mist and Fog 23 -5 22 -5.5 96 96 Calm 30.06 1018 1 2 0.00 0.00
8:00 am 08:00 Sunny with Mist and Fog 23 -5 21 -6 93 93 Calm 30.12 1020 1 1 0.00 0.00
8:07 am 08:07 Sunny with Mist and Fog 23 -5 21 -6 93 93 S 3 6 30.12 1020 1 2 0.00 0.00
8:11 am 08:11 Sunny with Mist and Fog 23 -5 23 -5 100 100 S 3 6 30.12 1020 2 3 0.00 0.00
8:36 am 08:36 Sunny with Mist and Fog 28 -2 27 -3 93 93 S 5 7 30.09 1019 3 5 0.00 0.00
8:56 am 08:56 Sunny with Mist and Fog 30 -1.1 29 -1.6 96 96 S 3 6 30.06 1018 4 6 0.00 0.00
9:56 am 09:56 Sunny with Mist and Fog 33 0.5 32 0 96 96 SSW 7 11 30.07 1018 5 8 0.00 0.00
10:56 am 10:56 Sunny 37 2.7 33 0.5 86 86 S 6 9 30.07 1018 7 11 0.00 0.00
11:56 am 11:56 Sunny 39 3.8 32 0 77 77 SSW 6 9 30.04 1017 8 13 0.00 0.00
12:56 pm 12:56 Sunny 42 5.5 32 0 68 68 S 7 11 30.01 1016 9 14 0.00 0.00
1:56 pm 13:56 Sunny 42 5.5 32 0 68 68 SSW 8 13 29.99 1016 9 14 0.00 0.00
2:56 pm 14:56 Sunny 42 5.5 33 0.5 71 71 S 5 7 29.97 1015 8 13 0.00 0.00
3:56 pm 15:56 Sunny 44 6.6 32 0 63 63 S 3 6 29.97 1015 9 14 0.00 0.00
4:56 pm 16:56 Sunny 42 5.5 32 0 68 68 Calm 29.97 1015 9 14 0.00 0.00
5:56 pm 17:56 Clear 37 2.7 30 -1.1 76 76 Calm 29.98 1015 9 14 0.00 0.00
6:56 pm 18:56 Clear 36 2.2 30 -1.1 79 79 Calm 29.98 1015 10 16 0.00 0.00
7:56 pm 19:56 Clear 33 0.5 29 -1.6 86 86 Calm 29.98 1015 9 14 0.00 0.00
8:56 pm 20:56 Clear 30 -1.1 28 -2.2 92 92 SSE 3 6 29.97 1015 8 13 0.00 0.00
9:56 pm 21:56 Mostly Cloudy 31 -0.5 29 -1.6 92 92 SSE 3 6 29.97 1015 8 13 0.00 0.00
10:56 pm 22:56 Partly Cloudy 30 -1.1 28 -2.2 92 92 SSE 5 7 29.97 1015 8 13 0.00 0.00
11:56 pm 23:56 Cloudy 30 -1.1 29 -1.6 96 96 SSE 3 6 29.97 1015 8 13 0.00 0.00

Powered by AerisWeather